Hourly Data Report for September 25, 2017

All times are specified in Local Standard Time (LST). Add 1 hour to adjust for Daylight Saving Time where and when it is observed.

WOODSTOCK NEWBRIDGE
NEW BRUNSWICK

46°09'08.000" N
67°32'34.000" W
154.00 m
8105603
71606
EWD

Download Data

Hourly Data (September 2017)
Hourly Data Report for September 25, 2017
Temp Definition
°C
Dew Point Temp Definition
°C
Rel Hum Definition
%
Wind Dir Definition
10's deg

Wind Spd Definition
km/h
Visibility Definition
km
Stn Press Definition
kPa
Hmdx Definition


Wind Chill Definition


Weather Definition


TIME
00:00 20.0 18.7 92 1 2   100.00 27   LegendNANA
01:00 19.2 17.7 91 1 3   100.03     LegendNANA
02:00 16.7 16.0 96 0 1   100.01     LegendNANA
03:00 15.3 14.7 97   0   100.01     LegendNANA
04:00 14.7 14.4 98 1 3   100.07     LegendNANA
05:00 16.2 15.8 98 8 6   100.09     LegendNANA
06:00 14.9 14.2 95 9 6   100.14     LegendNANA
07:00 15.9 14.3 90 11 4   100.17     LegendNANA
08:00 16.9 14.2 84 11 7   100.21     LegendNANA
09:00 18.3 13.9 76 14 7   100.20     LegendNANA
10:00 21.0 14.9 68 16 4   100.21 25   LegendNANA
11:00 22.8 16.1 66 16 8   100.16 27   LegendNANA
12:00 24.7 16.9 62 15 7   100.08 30   LegendNANA
13:00 27.6 17.9 55 17 11   100.00 34   LegendNANA
14:00 29.1 18.5 53 20 10   99.94 35   LegendNANA
15:00 29.1 18.4 53 21 13   99.88 35   LegendNANA
16:00 30.5 19.2 51 21 11   99.83 37   LegendNANA
17:00 29.8 18.9 52 19 10   99.81 36   LegendNANA
18:00 28.1 19.0 58 19 7   99.81 35   LegendNANA
19:00 25.7 18.9 66 16 4   99.82 32   LegendNANA
20:00 24.9 19.2 71 17 6   99.82 32   LegendNANA
21:00 24.4 18.9 72 18 6   99.83 31   LegendNANA
22:00 23.6 19.0 75 17 9   99.80 30   LegendNANA
23:00 22.7 19.1 80 17 10   99.76 30   LegendNANA

Notes on Data Quality.

Legend

  • E = Estimated
  • M = Missing
  • NA = Not Available
  • ‡ = Partner data that is not subject to review by the National Climate Archives
Date modified: